Location: Peebles
(55.6412°N, 3.1714°W)
Time: 01:27:21
(UTC+01:00)

FENGYUN 1C DEB - Pass Details

Date: 03 July 2022
Orbit: 580 x 1160 km, 99.3° (Epoch: 11 August)

Event Time Altitude Azimuth Distance (km) Brightness Sun altitude
Exits shadow 00:28:03 13° 156° (SSE) 2,303 ? -10.7°
Maximum altitude 00:33:10 84° 69° (ENE) 980 ? -10.8°
Drops below altitude 10° 00:39:46 10° 343° (NNW) 2,907 ? -11.0°
Sets 00:42:28 0° 343° (NNW) 3,928 ? -11.0°
